Hauptseite
METAR-TAF:

METAR-TAF

Flughäfen :

Emmen, Schweiz

Militärflugplatz Emmen

Breite: 47-05-32N, Länge: 8-18-16E, Höhe: 426 m

Beobachtung

Neuester Wetterbericht von vor 8 Minuten, um 11:32 UTC
Wind 7 kt aus Nord/Nordost, variierte zwischen Nord/Nordwest und Ost/Nordost
Temperatur 13°C
Luftfeuchtigkeit 72%
Luftdruck 1019 hPa
Sichtweite 10 km oder mehr
Aufgelockert bewölkt in der Höhe von 2500 ft

METAR: LSME 251132Z AUTO 02007KT 330V070 9999NDV SCT025 13/08 Q1019 RMK

Zeit: 12:40 (11:40 UTC)


TAF: fehlend

Wetterbeobachtungen und Prognosen von mehr als 4000 Flughäfen (METAR und TAF Bericht).

Die verfügbaren Stationen werden durch gelbe und rote Markierungen auf der Karte dargestellt.

Führen Sie die Maus auf sie, um den Namen der Station zu sehen.

Darauf klicken, um die Beobachtung von Wetterbeobachtungen und Prognosen zu sehen.

Um die Karte zu ändern : klicken Sie auf den grünen Tasten mit einem schwarzen Kreuz Zum Vergrößern, auf den grünen Button mit einem Gedankenstrich zu verkleinern, oder auf die grünen Pfeile für benachbarte Karten.


METAR-TAF: